Regional Weather Roundup
Issued by NWS

Home | Current Version | Previous Version | Text Only | Print | Product List | Glossary On
Versions: 1 2 3 4 5 6 7 8 9 10 11 12 13 14 15 16 17 18 19 20 21 22 23 24 25 26 27
000
ASUS43 KDMX 172207
RWRIA

WEATHER ROUNDUP FOR IOWA
NATIONAL WEATHER SERVICE DES MOINES IA
500 PM CDT THU APR 17 2014

NOTE: "FAIR" INDICATES FEW OR NO CLOUDS BELOW 12,000 FEET WITH NO
SIGNIFICANT WEATHER AND/OR OBSTRUCTIONS TO VISIBILITY.

* - THESE STATIONS ARE NOT NWS STATIONS...THUS NOT UNDER NWS
QUALITY CONTROL.  THEY ALSO DO NOT REPORT WEATHER SUCH
AS PRECIPITATION OR FOG.

IAZ001>003-012>014-020>022-031>034-043>046-172300-
   NORTHWEST IOWA

CITY           SKY/WX    TMP DP  RH WIND       PRES   REMARKS
CARROLL *      SUNNY     52  25  35 NW7       30.25S
CHEROKEE *     SUNNY     54  27  35 N5        30.26S
DENISON *      SUNNY     52  23  32 CALM      30.23F
LE MARS *      SUNNY     50  25  37 N7G13     30.26F
ORANGE CITY *  SUNNY     50  23  34 NE5       30.25F
SHELDON *      SUNNY     45  25  45 CALM      30.25F
SIOUX CITY     SUNNY     53  24  32 NE6       30.26F
SPENCER        SUNNY     46  28  49 NE7       30.27F
STORM LAKE *   SUNNY     48  27  43 E10       30.25F
$$

IAZ055>058-069>071-079>083-090>094-172300-
   SOUTHWEST IOWA

CITY           SKY/WX    TMP DP  RH WIND       PRES   REMARKS
ATLANTIC *     SUNNY     54  27  35 CALM      30.23F
AUDUBON *      SUNNY     55  18  22 NE8       30.24F
CLARINDA *     SUNNY     54  28  37 CALM      30.26F
COUNCIL BLFS * SUNNY     54  27  35 SE6G12    30.23F
CRESTON *      SUNNY     54  30  40 N6        30.24S
HARLAN  *      SUNNY     54  25  32 VRB5      30.27F
LAMONI         SUNNY     55  31  39 N7        30.24S
RED OAK *      SUNNY     54  27  35 CALM      30.25S
SHENANDOAH *   SUNNY     55  28  35 CALM      30.26S
$$

IAZ047>049-059>061-072>074-084-172300-
   CENTRAL IOWA

CITY           SKY/WX    TMP DP  RH WIND       PRES   REMARKS
AMES           SUNNY     52  28  39 N9        30.25F
ANKENY *       SUNNY     54  30  40 VRB7      30.24F
CHARITON *     SUNNY     52  32  46 VRB6      30.24S
DES MOINES     MOSUNNY   54  29  38 VRB3      30.25F
GRINNELL*      SUNNY     50  32  50 N8        30.25F
KNOXVILLE *    SUNNY     50  32  50 VRB5      30.24F
MARSHALLTOWN   SUNNY     48  33  56 N6        30.25F
NEWTON *       SUNNY     50  32  50 N9G17     30.25F
PELLA *        SUNNY     54  32  43 N3        30.26S
PERRY *          N/A     54  23  30 NW6       30.24F
$$

IAZ004>006-015-016-023>025-035-036-172300-
   NORTH CENTRAL IOWA

CITY           SKY/WX    TMP DP  RH WIND       PRES   REMARKS
ALGONA *       SUNNY     45  28  53 N7G16     30.27F
CLARION *      SUNNY     45  30  57 N12       30.27S
ESTHERVILLE    PTSUNNY   43  30  60 N9        30.27S
FORT DODGE *   SUNNY     48  28  46 N9        30.27F
MASON CITY     MOSUNNY   42  30  62 N10       30.28F
FOREST CITY *  SUNNY     41  32  70 NW9       30.27F
IOWA FALLS *     N/A     48  32  53 NW9       30.27S
$$

IAZ007>011-017>019-026>030-037>042-050>054-066-172300-
   NORTHEAST IOWA

CITY           SKY/WX    TMP DP  RH WIND       PRES   REMARKS
CEDAR RAPIDS   SUNNY     50  33  52 NW14      30.23S
CHARLES CITY * PTSUNNY   41  32  70 N13       30.28S
CLINTON *      SUNNY     55  36  47 NW9G16    30.24S
DECORAH *      CLOUDY    39  32  75 NW13      30.26R WCI  32
DUBUQUE        SUNNY     52  36  54 W10       30.21S
MONTICELLO *   SUNNY     52  36  54 NW10      30.23S
OELWEIN *      MOSUNNY  N/A N/A N/A N12       30.26S
WATERLOO       SUNNY     47  32  56 N10       30.26S
$$

IAZ064-065-067-068-078-172300-
   EAST CENTRAL IOWA

CITY           SKY/WX    TMP DP  RH WIND       PRES   REMARKS
DAVENPORT      SUNNY     53  34  48 W8        30.23S
IOWA CITY      SUNNY     52  36  54 NW10      30.26S
MT. PLEASANT * MOSUNNY   54  32  43 NW7       30.25S
MUSCATINE *    SUNNY     55  34  44 W8        30.25R
QUAD CITIES    MOSUNNY   54  35  48 NW6       30.23R
$$

IAZ062-063-075>077-085>089-095>099-172300-
   SOUTHEAST IOWA

CITY           SKY/WX    TMP DP  RH WIND       PRES   REMARKS
BURLINGTON     PTSUNNY   52  35  52 CALM      30.24S
FAIRFIELD *    SUNNY     52  32  46 NW8       30.25S
FORT MADISON * SUNNY     52  36  54 CALM      30.25F
KEOKUK *       SUNNY     52  36  54 VRB5      30.25S
OSKALOOSA *      N/A     52  32  46 NW3       30.25S
CENTERVILLE *  SUNNY     52  32  46 N3        30.26R
OTTUMWA        SUNNY     50  32  50 NW10      30.24F
WASHINGTON *   SUNNY     54  34  47 NW8       30.25S
$$

ABBREVIATIONS USED IN REMARKS
   TC - TEMPERATURES IN CELSIUS
  WCI - WIND CHILL INDEX
   HX - HEAT INDEX
  VSB - VISIBILITY
$$




USA.gov is the U.S. government's official web portal to all federal, state and local government web resources and services.